Naples, Italy

7:31 AM CET on February 28, 2017 (GMT +0100)
Naples

Weather History for LIRN - October, 2010

Change the Weather History Date:

Friday, October 29, 2010

  Actual Average Record
Temperature  
Mean Temperature 54 °F -  
Max Temperature 66 °F 63 °F 77 °F (1999)
Min Temperature 41 °F 46 °F 42 °F (1997)
Degree Days  
Heating Degree Days 12    
Growing Degree Days 4 (Base 50)    
Moisture  
Dew Point 36 °F    
Average Humidity 55    
Maximum Humidity 76    
Minimum Humidity 30    
Precipitation  
Precipitation 0.00 in 0.21 in - ()
Sea Level Pressure  
Sea Level Pressure 30.11 in    
Wind  
Wind Speed 3 mph ()    
Max Wind Speed 6 mph    
Max Gust Speed -    
Visibility 8.2 miles    
Events      
Averages and records for this station are not official NWS values.
T = Trace of Precipitation, MM = Missing Value Source: Averaged Metar Reports

Daily Weather History Graph

Daily Weather History Graph

Search for Another Location

Airport or City:

Trip Planner

Search our weather history database for the weather conditions in past years. The results will help you decide how hot, cold, wet, or windy it might be!

Date:

Astronomy

Oct. 29, 2010 Rise Set
Actual Time 7:29 AM CEST 6:02 PM CEST
Civil Twilight 7:01 AM CEST 6:31 PM CEST
Nautical Twilight 6:28 AM CEST 7:03 PM CEST
Astronomical Twilight 5:57 AM CEST 7:35 PM CEST
Moon 11:23 PM CEST (10/29) 1:20 PM CEST (10/29)
Length of Visible Light 11h 30m
Length of Day
10h 33m
Waning Gibbous, 62% of the Moon is Illuminated
Oct 29
Waning Gibbous
Oct 30
Last Quarter
Nov 6
New
Nov 13
First Quarter
Nov 21
Full

Hourly Weather History & Observations

Time (CEST) Temp. Windchill Dew Point Humidity Pressure Visibility Wind Dir Wind Speed Gust Speed Precip Events Conditions
12:20 AM 50.0 °F - 37.4 °F 62% 30.12 in - NNW 4.6 mph - N/A   Clear
12:50 AM 50.0 °F - 37.4 °F 62% 30.12 in - North 4.6 mph - N/A   Clear
1:20 AM 50.0 °F - 37.4 °F 62% 30.12 in - North 4.6 mph - N/A   Clear
1:50 AM 48.2 °F - 37.4 °F 66% 30.12 in - Variable 2.3 mph - N/A   Clear
2:00 AM 47 °F - 35 °F 51% 30.14 in 9 mi NNW 3.5 mph - -  
2:20 AM 46.4 °F - 35.6 °F 66% 30.12 in - Variable 2.3 mph - N/A   Clear
2:50 AM 48.2 °F - 37.4 °F 66% 30.12 in - WNW 3.5 mph - N/A   Clear
3:20 AM 44.6 °F 43.1 °F 33.8 °F 66% 30.09 in - Variable 3.5 mph - N/A   Clear
3:50 AM 44.6 °F - 35.6 °F 71% 30.09 in - Variable 2.3 mph - N/A   Clear
4:20 AM 44.6 °F - 35.6 °F 71% 30.09 in - Variable 2.3 mph - N/A   Clear
4:50 AM 42.8 °F 41.1 °F 32.0 °F 66% 30.09 in - Variable 3.5 mph - N/A   Clear
5:00 AM 45 °F - 36 °F 61% 30.12 in 6 mi NW 3.5 mph - -  
5:20 AM 42.8 °F 41.1 °F 35.6 °F 76% 30.09 in - Variable 3.5 mph - N/A   Clear
5:50 AM 44.6 °F 43.1 °F 35.6 °F 71% 30.09 in - Variable 3.5 mph - N/A   Clear
6:20 AM 42.8 °F 41.1 °F 33.8 °F 70% 30.09 in - Variable 3.5 mph - N/A   Clear
6:50 AM 42.8 °F 40.1 °F 32.0 °F 66% 30.09 in - NW 4.6 mph - N/A   Clear
7:20 AM 44.6 °F 43.1 °F 35.6 °F 71% 30.09 in - Variable 3.5 mph - N/A   Clear
7:50 AM 44.6 °F 43.1 °F 33.8 °F 66% 30.09 in - Variable 3.5 mph - N/A   Clear
8:00 AM 45 °F - 35 °F 57% 30.13 in 12 mi Calm Calm - -  
8:20 AM 44.6 °F - 35.6 °F 71% 30.12 in - Variable 2.3 mph - N/A   Clear
8:50 AM 48.2 °F - 39.2 °F 71% 30.12 in - Variable 2.3 mph - N/A   Clear
9:20 AM 50.0 °F - 37.4 °F 62% 30.12 in - Variable 1.2 mph - N/A   Clear
9:50 AM 53.6 °F - 37.4 °F 54% 30.12 in - Variable 3.5 mph - N/A   Clear
10:20 AM 53.6 °F - 37.4 °F 54% 30.12 in - North 4.6 mph - N/A   Clear
10:50 AM 57.2 °F - 37.4 °F 48% 30.12 in - Variable 3.5 mph - N/A   Clear
11:00 AM 57 °F - 37 °F 36% 30.14 in 6 mi North 3.5 mph - -  
11:20 AM 59.0 °F - 39.2 °F 48% 30.12 in - Variable 3.5 mph - N/A   Clear
11:50 AM 59.0 °F - 35.6 °F 42% 30.12 in - Variable 2.3 mph - N/A   Clear
12:20 PM 60.8 °F - 35.6 °F 39% 30.15 in - Variable 3.5 mph - N/A   Clear
12:50 PM 62.6 °F - 30.2 °F 30% 30.12 in - North 5.8 mph - N/A   Clear
1:20 PM 62.6 °F - 32.0 °F 32% 30.12 in - NNE 4.6 mph - N/A   Clear
1:50 PM 62.6 °F - 33.8 °F 34% 30.12 in - North 5.8 mph - N/A   Clear
2:20 PM 64.4 °F - 32.0 °F 30% 30.09 in - Variable 3.5 mph - N/A   Clear
2:50 PM 66.2 °F - 35.6 °F 32% 30.09 in - Calm Calm - N/A   Clear
3:20 PM - - - N/A% 30.09 in - Variable 3.5 mph - N/A   Clear
4:20 PM - - - N/A% 30.09 in - Calm Calm - N/A   Clear
4:50 PM 66.2 °F - 33.8 °F 30% 30.09 in - Calm Calm - N/A   Clear
5:20 PM - - - N/A% 30.09 in - Calm Calm - N/A   Clear
5:50 PM 62.6 °F - 35.6 °F 37% 30.09 in - Variable 2.3 mph - N/A   Clear
6:20 PM 60.8 °F - 33.8 °F 36% 30.09 in - Variable 2.3 mph - N/A   Clear
6:50 PM 57.2 °F - 35.6 °F 44% 30.09 in - Variable 2.3 mph - N/A   Clear
7:20 PM 55.4 °F - 37.4 °F 51% 30.12 in - Variable 3.5 mph - N/A   Clear
7:50 PM 55.4 °F - 39.2 °F 54% 30.12 in - Variable 2.3 mph - N/A   Clear
8:20 PM 55.4 °F - 39.2 °F 54% 30.12 in - Calm Calm - N/A   Clear
8:50 PM 53.6 °F - 37.4 °F 54% 30.12 in - Variable 1.2 mph - N/A   Clear
9:20 PM 53.6 °F - 37.4 °F 54% 30.12 in - Variable 1.2 mph - N/A   Clear
9:50 PM 51.8 °F - 35.6 °F 54% 30.12 in - Variable 3.5 mph - N/A   Clear
10:20 PM 50.0 °F - 35.6 °F 58% 30.12 in - Variable 1.2 mph - N/A   Clear
10:50 PM 51.8 °F - 37.4 °F 58% 30.12 in - Variable 2.3 mph - N/A   Clear
11:20 PM 48.2 °F - 35.6 °F 62% 30.12 in - Calm Calm - N/A   Clear
11:50 PM 48.2 °F - 35.6 °F 62% 30.12 in - Variable 3.5 mph - N/A   Clear